Change the Weather History Date:

Tuesday, October 16, 2012

  Actual Average Record
Temperature  
Mean Temperature 54 °F -  
Max Temperature 66 °F 61 °F 80 °F (2011)
Min Temperature 41 °F 42 °F 41 °F (2010)
Degree Days  
Heating Degree Days 12    
Growing Degree Days 4 (Base 50)    
Moisture  
Dew Point 40 °F    
Average Humidity 63    
Maximum Humidity 93    
Minimum Humidity 27    
Precipitation  
Precipitation 0.00 in 0.06 in - ()
Sea Level Pressure  
Sea Level Pressure 30.02 in    
Wind  
Wind Speed 3 mph ()    
Max Wind Speed 10 mph    
Max Gust Speed 26 mph    
Visibility 19.0 miles    
Events      
Averages and records for this station are not official NWS values.
T = Trace of Precipitation, MM = Missing Value Source: Averaged Metar Reports

Daily Weather History Graph

Daily Weather History Graph

Search for Another Location

Airport or City:

Trip Planner

Search our weather history database for the weather conditions in past years. The results will help you decide how hot, cold, wet, or windy it might be!

Date:

Astronomy

Oct. 16, 2012 Rise Set
Actual Time 8:26 AM CEST 7:32 PM CEST
Civil Twilight 7:58 AM CEST 7:59 PM CEST
Nautical Twilight 7:27 AM CEST 8:31 PM CEST
Astronomical Twilight 6:55 AM CEST 9:02 PM CEST
Moon 9:32 AM CEST (10/16) 8:05 PM CEST (10/16)
Length of Visible Light 12h 00m
Length of Day
11h 05m
New Moon, 1% of the Moon is Illuminated
Oct 16
New Moon
Oct 22
First Quarter
Oct 29
Full
Nov 7
Last Quarter
Nov 13
New

Hourly Weather History & Observations

Time (CEST) Temp. Windchill Dew Point Humidity Pressure Visibility Wind Dir Wind Speed Gust Speed Precip Events Conditions
12:00 AM 51.8 °F - 41.0 °F 67% 30.04 in - North 3.5 mph - N/A   Clear
12:30 AM 50.0 °F - 41.0 °F 71% 30.04 in - North 4.6 mph - N/A   Clear
1:00 AM 48.2 °F - 41.0 °F 76% 30.04 in - Calm Calm - N/A   Clear
1:30 AM 48.2 °F - 41.0 °F 76% 30.04 in - North 3.5 mph - N/A   Clear
2:00 AM 46 °F - 39 °F 68% 30.06 in 19 mi North 4.6 mph - -  
2:00 AM 48.2 °F - 41.0 °F 76% 30.04 in - North 4.6 mph - N/A   Clear
2:30 AM 46.4 °F 45.2 °F 41.0 °F 81% 30.04 in - North 3.5 mph - N/A   Clear
3:00 AM 46.4 °F - 41.0 °F 81% 30.04 in - NNE 1.2 mph - N/A   Clear
3:30 AM 46.4 °F 44.3 °F 41.0 °F 81% 30.04 in - NW 4.6 mph - N/A   Clear
4:00 AM 44.6 °F 43.1 °F 41.0 °F 87% 30.04 in - North 3.5 mph - N/A   Clear
4:30 AM 44.6 °F - 39.2 °F 81% 30.04 in - NNE 1.2 mph - N/A   Clear
5:00 AM 44.6 °F - 39.2 °F 81% 30.01 in - NNE 1.2 mph - N/A   Clear
5:30 AM 44.6 °F - 39.2 °F 81% 30.01 in - Calm Calm - N/A   Clear
6:00 AM 44.6 °F 43.1 °F 41.0 °F 87% 30.01 in - North 3.5 mph - N/A   Clear
6:30 AM 42.8 °F 41.1 °F 41.0 °F 93% 30.01 in - North 3.5 mph - N/A   Clear
7:00 AM 42.8 °F 41.1 °F 39.2 °F 87% 30.04 in - North 3.5 mph - N/A   Clear
7:30 AM 42.8 °F 41.1 °F 41.0 °F 93% 30.04 in - North 3.5 mph - N/A   Clear
8:00 AM 41 °F - 37 °F 80% 30.09 in 19 mi North 3.5 mph - -  
8:00 AM 42.8 °F 41.1 °F 39.2 °F 87% 30.04 in - North 3.5 mph - N/A   Clear
8:30 AM 42.8 °F 41.1 °F 39.2 °F 87% 30.04 in - North 3.5 mph - N/A   Clear
9:00 AM 42.8 °F 41.1 °F 39.2 °F 87% 30.04 in - North 3.5 mph - N/A   Clear
9:30 AM 44.6 °F - 41.0 °F 87% 30.04 in - Variable 2.3 mph - N/A   Clear
10:00 AM 46.4 °F - 41.0 °F 81% 30.06 in - Calm Calm - N/A   Clear
10:30 AM 48.2 °F - 41.0 °F 76% 30.06 in - Calm Calm - N/A   Clear
11:00 AM 50.0 °F - 41.0 °F 71% 30.06 in - WSW 1.2 mph - N/A   Clear
11:30 AM 51.8 °F - 41.0 °F 67% 30.06 in - Variable 2.3 mph - N/A   Clear
12:00 PM 53.6 °F - 41.0 °F 62% 30.06 in - South 3.5 mph - N/A   Clear
12:30 PM 57.2 °F - 41.0 °F 55% 30.06 in - SSE 3.5 mph - N/A   Clear
1:00 PM 59.0 °F - 41.0 °F 51% 30.06 in - Calm Calm - N/A   Clear
1:30 PM 60.8 °F - 41.0 °F 48% 30.04 in - South 3.5 mph - N/A   Clear
2:00 PM 62.6 °F - 39.2 °F 42% 30.04 in - SSW 8.1 mph - N/A   Clear
2:30 PM 62.6 °F - 39.2 °F 42% 30.04 in - SSW 6.9 mph - N/A   Clear
3:00 PM 64.4 °F - 41.0 °F 42% 30.01 in - SSW 8.1 mph 21.9 mph N/A   Clear
3:30 PM 64.4 °F - 41.0 °F 42% 30.01 in - SSW 9.2 mph 20.7 mph N/A   Clear
4:00 PM 64.4 °F - 39.2 °F 40% 29.98 in - SSW 8.1 mph - N/A   Clear
4:30 PM 66.2 °F - 41.0 °F 40% 29.98 in - South 8.1 mph - N/A   Clear
5:00 PM 66.2 °F - 39.2 °F 37% 29.98 in - WSW 9.2 mph 25.3 mph N/A   Clear
5:30 PM 68.0 °F - 39.2 °F 35% 29.98 in - WSW 8.1 mph - N/A   Clear
6:00 PM 68.0 °F - 35.6 °F 30% 29.98 in - SW 10.4 mph - N/A   Clear
6:30 PM 68.0 °F - 35.6 °F 30% 29.98 in - Variable 9.2 mph 26.5 mph N/A   Clear
7:00 PM 66.2 °F - 37.4 °F 35% 29.98 in - WSW 8.1 mph - N/A   Clear
7:30 PM 64.4 °F - 37.4 °F 37% 29.98 in - SW 8.1 mph - N/A   Clear
8:00 PM 62 °F - 37 °F 27% 29.94 in 19 mi SSW 4.6 mph - -   Clear
8:00 PM 64.4 °F - 39.2 °F 40% 29.98 in - SSW 4.6 mph 17.3 mph N/A   Clear
8:30 PM 62.6 °F - 39.2 °F 42% 29.98 in - SW 3.5 mph - N/A   Clear
9:00 PM 62.6 °F - 41.0 °F 45% 29.98 in - SSW 3.5 mph - N/A   Clear
10:00 PM 60.8 °F - 41.0 °F 48% 29.98 in - WSW 2.3 mph - N/A   Clear
10:30 PM 55.4 °F - 41.0 °F 58% 29.98 in - SSW 2.3 mph - N/A   Clear
11:00 PM 55.4 °F - 41.0 °F 58% 29.98 in - South 2.3 mph - N/A   Clear
11:30 PM 53.6 °F - 41.0 °F 62% 29.98 in - SE 4.6 mph - N/A   Clear